Weather Roundup
Issued by NWS

Home | Current Version | Previous Version | Text Only | Print | Product List | Glossary On
Versions: 1 2 3 4 5 6 7 8 9 10 11 12 13 14 15 16 17 18 19 20 21 22 23 24 25 26 27 28 29 30 31 32 33 34 35 36 37 38 39 40 41 42 43 44 45 46 47 48 49 50
000
NZUS93 KARX 171010
HRRWXR

CURRENT HOURLY OBSERVATIONS ACROSS
MUCH OF THE UPPER MISSISSIPPI VALLEY
NATIONAL WEATHER SERVICE LA CROSSE WI
500 AM CDT THU APR 17 2014


...SOUTHEAST MINNESOTA...


CITY           SKY/WX    TMP DP  RH WIND       PRES   REMARKS
ROCHESTER      FOG       33  31  92 NW22      29.96R VSB 1   WCI  21
ROCHESTER/MAYO CLOUDY    33  32  96 NW18G29   29.96R WCI  22
WINONA         CLOUDY    43  36  75 NW3       29.92R
AUSTIN         CLOUDY    30  28  93 NW17G24   30.01R FOG     WCI  18
ALBERT LEA     CLOUDY    30  30 100 NW14G24   30.04R WCI  20
DODGE CENTER   CLOUDY    34  34 100 NW18      29.99R FOG     WCI  23
PRESTON        CLOUDY    35  34  97 W18G24    29.95R FOG     WCI  24
OWATONNA       CLOUDY    30  28  93 NW21      30.05R FOG     WCI  17
FARIBAULT      CLOUDY    34  28  80 NW13G21   30.06R WCI  25
$$

...ELSEWHERE IN MINNESOTA...


CITY           SKY/WX    TMP DP  RH WIND       PRES   REMARKS
MINNEAPOLIS    CLOUDY    29  28  96 N18       30.06R WCI  16
INTNL FALLS    CLEAR     21   8  57 NE6       30.26S WCI  13
DULUTH         LGT SNOW  28  25  88 NE16G25   30.10S BLWGSNOWWCI  16
RED WING       CLOUDY    34  32  93 NW8G17    29.99R FOG     WCI  27
REDWOOD FALLS  CLEAR     23  18  81 NW13      30.18R WCI  11
MANKATO        CLOUDY    30  25  80 NW18G24   30.10R WCI  18
WORTHINGTON    CLEAR     25  16  68 NW16      30.16R WCI  12
FAIRMONT       CLOUDY    28  23  80 NW20G26   30.13R WCI  15
$$

...SOUTHWEST WISCONSIN...


CITY           SKY/WX    TMP DP  RH WIND       PRES   REMARKS
LA CROSSE      CLOUDY    47  37  68 SW10      29.89R
PRAIRIE DU CHI CLOUDY    40  36  83 SW9G21    29.97R WCI  35
BOSCOBEL       CLOUDY    48  34  58 SW17G26   29.94R
LONE ROCK      PTCLDY    44  30  57 S10G21    29.95S
PLATTEVILLE    MOCLDY    42  31  63 S14       29.98R
FORT MC COY    CLOUDY    46  29  51 S12         N/A
CAMP DOUGLAS   CLOUDY    43  31  63 E8        29.92F
VIROQUA        CLOUDY    43  37  78 SW15      29.90R
WIS DELLS      CLOUDY    42  29  58 S15       29.95S
$$

...ELSEWHERE IN WISCONSIN...


CITY           SKY/WX    TMP DP  RH WIND       PRES   REMARKS
MILWAUKEE      CLOUDY    40  30  67 SE15      30.11F WCI  32
MADISON        CLOUDY    45  28  51 S20G29    30.00S
GREEN BAY      CLOUDY    35  32  88 SE16      30.10F WCI  25
EAU CLAIRE     LGT RAIN  37  35  92 NE7       29.96R WCI  32
BLACK RVR FLS  CLOUDY    44  32  63 NE3       29.91R
MEDFORD        LGT SNOW  32  32  98 E8        29.98S WCI  25
WAUSAU         LGT SNOW  34  32  92 E10       29.99S FOG     WCI  26
WIS RAPIDS     LGT RAIN  40  29  64 SE12      29.97F WCI  33
MARSHFIELD     LGT RAIN  36  32  85 E12       29.95F WCI  28
RICE LAKE      CLOUDY    33  32  98 N8        30.02R FOG     WCI  25
$$

...NORTHEAST IOWA...


CITY           SKY/WX    TMP DP  RH WIND       PRES   REMARKS
WATERLOO       CLOUDY    34  30  85 W9G21     30.05R WCI  27
DUBUQUE        CLOUDY    42  37  82 W21       29.99R
DECORAH        CLOUDY    36  34  93 W10G21    29.97R WCI  28
MASON CITY     CLOUDY    30  29  96 NW23      30.06R WCI  17
CHARLES CITY   CLOUDY    32  30  93 NW22G29   30.03R WCI  19
OELWEIN        CLOUDY   N/A N/A N/A W13G20    30.03R
$$

...ELSEWHERE IN IOWA...


CITY           SKY/WX    TMP DP  RH WIND       PRES   REMARKS
DES MOINES     CLOUDY    35  28  75 NW18      30.16R WCI  24
IOWA CITY      CLOUDY    39  34  82 W16G29    30.09R WCI  30
FORT DODGE     CLOUDY    30  25  80 NW10G20   30.11R WCI  21
MARSHALLTOWN   CLOUDY    33  30  88 W15       30.09R WCI  23
CEDAR RAPIDS   CLOUDY    37  31  78 W17G24    30.06R WCI  27
$$

...NORTHERN ILLINOIS...


CITY           SKY/WX    TMP DP  RH WIND       PRES   REMARKS
CHICAGO-OHARE  MOCLDY    43  24  47 S16       30.11F
DUPAGE         CLOUDY    41  27  57 S16       30.09F
CHICAGO-MIDWAY CLOUDY    43  26  51 S12       30.14S
MOLINE         NOT AVBL
ROCKFORD       CLOUDY    41  29  62 S17G24    30.06F
STERLING       MOCLDY    43  30  61 SW5       30.05R
PEORIA         CLEAR     42  30  62 S9        30.10R
$$

NOTE: "FAIR" INDICATES FEW OR NO CLOUDS BELOW 12,000 FEET WITH NO
SIGNIFICANT WEATHER AND/OR OBSTRUCTIONS TO VISIBILITY. WIND
SPEEDS ARE IN MILES-PER-HOUR.



USA.gov is the U.S. government's official web portal to all federal, state and local government web resources and services.